Date,TemperatureHighF,TemperatureAvgF,TemperatureLowF,DewpointHighF,DewpointAvgF,DewpointLowF,HumidityHigh,HumidityAvg,HumidityLow,PressureMaxIn,PressureMinIn,WindSpeedMaxMPH,WindSpeedAvgMPH,GustSpeedMaxMPH,PrecipitationSumIn
2013-3-1,49.6,40.0,33.5,32.6,29.9,26.5,88,68,46,29.82,29.64,18,5,18,0.00
2013-3-2,41.7,35.8,30.2,26.8,24.3,21.6,72,63,52,29.83,29.73,16,4,16,0.00
2013-3-3,40.7,32.9,28.3,22.5,20.2,17.5,70,60,46,29.82,29.72,22,5,22,0.00
2013-3-4,45.8,35.3,28.2,23.5,20.5,17.1,67,55,40,29.96,29.81,24,6,25,0.00
2013-3-5,53.3,40.0,30.6,29.1,25.5,22.1,82,58,37,30.05,29.96,19,2,19,0.00
2013-3-6,42.6,38.4,31.3,36.8,32.8,26.8,90,80,67,29.98,29.81,35,6,35,0.02
2013-3-7,44.1,38.2,33.3,35.4,30.8,26.4,92,75,59,30.11,29.94,23,5,23,0.03
2013-3-8,41.5,34.9,30.3,36.1,31.3,27.8,95,87,70,30.22,30.04,13,4,13,0.29
2013-3-9,65.0,44.6,29.6,29.3,23.4,13.2,78,49,14,30.33,30.20,12,2,12,0.00
2013-3-10,57.2,40.2,25.6,36.8,30.7,22.5,91,71,41,30.40,30.28,15,2,15,0.00
2013-3-11,60.8,46.1,33.2,48.3,40.4,30.9,93,82,50,30.34,30.09,14,2,14,0.00
2013-3-12,58.0,52.9,45.4,56.7,49.7,39.0,97,89,76,30.09,29.68,21,5,21,0.63
2013-3-13,52.7,43.2,34.7,39.0,31.0,25.6,86,64,37,29.93,29.83,18,3,20,0.00
2013-3-14,44.4,36.4,30.0,26.4,16.2,10.8,67,45,29,30.01,29.89,29,6,29,0.00
2013-3-15,50.7,39.7,28.0,33.2,21.9,12.4,60,49,41,30.03,29.74,16,3,16,0.00
2013-3-16,45.4,36.2,33.3,32.6,29.4,23.0,94,77,54,29.94,29.80,12,1,12,0.06
2013-3-17,43.5,33.8,27.2,32.3,23.6,18.7,95,68,41,30.32,29.93,15,2,15,0.03
2013-3-18,38.3,31.5,24.0,34.4,24.6,14.2,94,76,54,30.41,29.97,18,2,18,0.13
2013-3-19,53.1,40.6,35.0,40.0,33.3,17.1,97,78,40,29.97,29.71,24,3,24,0.39
2013-3-20,48.2,38.9,31.3,26.3,20.4,17.9,70,48,31,29.93,29.80,23,4,23,0.00
2013-3-21,41.2,35.0,29.4,28.7,20.5,13.9,87,57,35,29.85,29.66,17,4,18,0.00
2013-3-22,44.3,34.7,26.7,23.5,20.1,14.3,75,56,38,29.93,29.78,26,4,26,0.00
2013-3-23,50.1,39.4,30.8,24.2,21.5,19.6,66,50,34,29.98,29.86,21,5,23,0.00
2013-3-24,50.4,40.1,27.6,27.4,22.5,19.8,75,51,33,29.98,29.71,16,2,16,0.00
2013-3-25,38.9,36.7,33.6,35.5,32.1,27.4,94,84,66,29.72,29.49,14,2,16,0.16
2013-3-26,53.4,43.0,33.7,36.4,32.1,26.7,96,69,38,29.90,29.63,14,2,15,0.01
2013-3-27,54.4,43.2,30.0,33.2,29.2,24.9,85,60,33,30.02,29.90,28,4,28,0.00
2013-3-28,52.9,44.1,33.6,32.5,30.3,27.8,80,59,41,30.14,30.00,17,4,17,0.00
2013-3-29,58.7,45.4,30.8,32.8,29.8,27.3,87,57,33,30.18,30.08,17,2,17,0.00
2013-3-30,62.0,46.2,30.4,33.7,27.4,22.0,90,54,24,30.20,30.09,15,2,15,0.00
2013-3-31,57.0,45.3,32.8,44.7,35.7,26.9,96,72,37,30.15,29.71,21,2,21,0.15